Overview Statistics Trail Chart Weather Telemetry Raw packets
 

This is the latest recevied weather packets stored in our database for station/object 4S6DRJ-13. If no packets are shown the sender has not sent any weather packets the latest 10 day(s).

<< 235 236 237 238 239 240 241 >>
Time Temp. Humidity Pressure Rain* Wind** Luminosity Snow
1788120223 27.78° C 84% 1009.5 hPa 0 mm 1.34 m/s, 253° 0 W/m² -
1788120162 27.78° C 84% 1009.5 hPa 0 mm 1.34 m/s, 258° 0 W/m² -
1788120104 27.78° C 84% 1009.6 hPa 0 mm 0 m/s 0 W/m² -
1788120040 27.78° C 84% 1009.5 hPa 0 mm 0.45 m/s, 126° 0 W/m² -
1788119979 27.78° C 84% 1009.5 hPa 0 mm 0.45 m/s, 223° 0 W/m² -
1788119918 27.78° C 84% 1009.6 hPa 0 mm 1.34 m/s, 222° 0 W/m² -
1788119857 27.78° C 84% 1009.7 hPa 0 mm 0.45 m/s, 245° 0 W/m² -
1788119796 27.78° C 84% 1009.6 hPa 0 mm 0.89 m/s, 184° 0 W/m² -
1788119735 27.78° C 84% 1009.6 hPa 0 mm 0.89 m/s, 232° 0 W/m² -
1788119674 27.78° C 84% 1009.7 hPa 0 mm 1.34 m/s, 225° 0 W/m² -
1788119613 27.78° C 84% 1009.6 hPa 0 mm 0.45 m/s, 227° 0 W/m² -
1788119552 27.78° C 84% 1009.7 hPa 0 mm 0.45 m/s, 198° 0 W/m² -
1788119491 27.78° C 84% 1009.6 hPa 0 mm 0.89 m/s, 227° 0 W/m² -
1788119430 27.78° C 84% 1009.6 hPa 0 mm 0 m/s 0 W/m² -
1788119369 27.78° C 84% 1009.7 hPa 0 mm 0.89 m/s, 277° 0 W/m² -
1788119322 27.78° C 84% 1009.3 hPa 0 mm 0.45 m/s, 241° 0 W/m² -
1788119247 27.78° C 84% 1009.7 hPa 0 mm 0 m/s 0 W/m² -
1788119186 27.78° C 84% 1009.6 hPa 0 mm 0.89 m/s, 279° 0 W/m² -
1788119125 27.78° C 84% 1009.7 hPa 0 mm 0.89 m/s, 252° 0 W/m² -
1788119064 27.78° C 84% 1009.8 hPa 0 mm 0.45 m/s, 316° 0 W/m² -
1788119003 27.78° C 85% 1009.8 hPa 0 mm 0 m/s 0 W/m² -
1788118942 27.78° C 84% 1009.6 hPa 0 mm 1.34 m/s, 232° 0 W/m² -
1788118881 27.78° C 85% 1009.9 hPa 0 mm 0.89 m/s, 212° 0 W/m² -
1788118820 27.78° C 85% 1009.7 hPa 0 mm 0.45 m/s, 239° 0 W/m² -
1788118759 27.78° C 85% 1009.8 hPa 0 mm 2.24 m/s, 211° 0 W/m² -

* Rain latest hour (hover to see other rain measurements)
** Current wind speed in m/s (hover to see current wind gust speed)